Simultaneous Nadir Overpasses (SNOs) Predictions

Prediction of SNOs between GOES-15 and NPP Satellite Orbit:

Table of predicted SNOs for the next 14.0 days since TLE Epoch: 10/29/2022
Index Date Time (GOES-15) GOES-15 Lat,Lon NPP Lat,Lon Distance(km) Time Diff (sec)
1 10/29/2022 10:12:32 0.15,-128.47 0.93,-131.89 389.54 80
2 10/30/2022 09:56:27 0.16,-128.47 -0.06,-127.35 126.85 80
3 10/31/2022 22:15:43 -0.14,-128.38 -1.09,-132.65 487.21 80
4 11/01/2022 21:59:38 -0.14,-128.37 -0.10,-128.11 29.26 80
5 11/04/2022 10:00:00 0.13,-128.44 0.22,-128.86 47.19 80
6 11/05/2022 09:43:55 0.14,-128.43 -0.77,-124.32 469.10 80
7 11/06/2022 22:03:10 -0.12,-128.34 -0.42,-129.61 145.11 80
8 11/07/2022 21:47:05 -0.13,-128.34 0.57,-125.07 371.26 80
9 11/09/2022 10:06:13 0.11,-128.40 0.53,-130.35 221.83 80
10 11/10/2022 09:50:08 0.12,-128.39 -0.47,-125.81 293.91 80
11 11/11/2022 22:09:23 -0.10,-128.29 -0.72,-131.11 321.76 80
